Вернуться в каталог

CZ-6A DEB

АктивенSSO
NORAD 54613·DEBRIS·🇨🇳 China

Запущен Nov 11, 2022 с Taiyuan Satellite Launch Center

Loading…

Ближайшие Пролёты (ближайшие 24 часа)

TLE

СвежийSource: Space-Track

Эпоха: Sep 14, 2026, 22:59 UTC

1 54613U 22151NP  26257.95802190  .00000177  00000-0  12432-3 0  9996
2 54613  98.8527 254.4750 0052065  69.1884 291.4852 14.09600247196832

Отслеживайте CZ-6A DEB в реальном времени с AllMySat

Download on the App Store